Regional Weather Roundup
Issued by NWS

Home | Current Version | Previous Version | Graphics & Text | Print | Product List | Glossary On
Versions: 1 2 3 4 5 6 7 8 9 10 11 12 13 14 15 16 17 18 19 20 21 22 23 24 25 26 27 28 29 30 31 32 33 34 35 36 37 38 39 40 41 42 43 44 45 46 47 48 49 50
000
ASUS43 KIND 162209
RWRIN

WEATHER ROUNDUP FOR INDIANA
NATIONAL WEATHER SERVICE INDIANAPOLIS IN
500 PM EST MON JAN 16 2017

NOTE: "FAIR" INDICATES FEW OR NO CLOUDS BELOW 12,000 FEET WITH NO
SIGNIFICANT WEATHER AND/OR OBSTRUCTIONS TO VISIBILITY.

* - STATION DOES NOT REPORT WEATHER SUCH AS PRECIPITATION OR FOG.

+ - STATION NOT QUALITY CONTROLLED BY THE NATIONAL WEATHER SERVICE.
    USE DATA WITH CAUTION...ESPECIALLY DEWPOINT AND RELATIVE
    HUMIDITY OBSERVATIONS.

INZ001>003-010>013-019-020-162300-
NORTHWEST INDIANA

CITY           SKY/WX    TMP DP  RH WIND       PRES   REMARKS
GARY /AIRPORT/ LGT RAIN  37  37 100 SE9       30.08F VSB 1
KNOX *+        CLOUDY    36  32  87 E6        30.09S VSB 1/4
LA PORTE +     DRZL/FOG  35  34  99 E8        30.10S VSB 1/4 WCI  28
MICHIGAN CITY+ LGT RAIN  36  36 100 SE6       30.09F
MONTICELLO +   FOG       38  37  95 E6        30.07S VSB 1/2
RENSSELAER +   FOG       37  37 100 E9        30.07F VSB 1/4
VALPARAISO     FOG       37  36  96 E9        30.08F VSB<1/4

$$

LMZ046-743>745-162300-
SOUTHERN LAKE MICHIGAN

STATION/POSITION TIME  TEMP    WIND        PRES    WAVE
                       AIR SEA DIR/SP/G            HT
                 (UTC) (F)     (DEG/KT/KT) (MB)    (FT)
BURNS HARBOR     2140   38     110/  9/ 15 1019.3S
MICHIGAN CITY    2140   36     100/  8/ 10   N/A

$$

INZ004-005-014>016-021>024-162300-
NORTH CENTRAL INDIANA

CITY           SKY/WX    TMP DP  RH WIND       PRES   REMARKS
ELKHART        DRIZZLE   36  36 100 E8        30.11F
GOSHEN         FOG       36  33  89 E9        30.12F VSB 1/2
LOGANSPORT +   FOG       37  37 100 E9        30.10S VSB 1
PERU/GRISSOM   FOG       38  38 100 E10       30.08S VSB 3/4
ROCHESTER +    FOG       37  37 100 E9        30.11S VSB 1/2
SOUTH BEND     LGT RAIN  35  35 100 SE10      30.11S VSB 1   WCI  27
WARSAW +       FOG       34  32  93 E8        30.12S VSB 1/2 WCI  27

$$

INZ006>009-017-018-025>027-162300-
NORTHEAST INDIANA

CITY           SKY/WX    TMP DP  RH WIND       PRES   REMARKS
ANGOLA *+      CLOUDY    36  36 100 SE7       30.14S VSB 3/4
AUBURN +       FOG       34  32  93 E6        30.15F VSB 1/4 WCI  29
FORT WAYNE     FOG       36  34  92 E9        30.13F VSB 1/2
HUNTINGTON +   CLOUDY    36  35  96 E6        30.13R FOG
KENDALLVILLE + FOG       33  33 100 E7        30.13F VSB 1/4 WCI  27

$$

INZ028-029-035-036-043>045-051>053-162300-
WEST CENTRAL INDIANA

CITY           SKY/WX    TMP DP  RH WIND       PRES   REMARKS
CRAWFORDSVL +  DRIZZLE   45  45 100 SE9       30.08S
GREENCASTLE +  CLOUDY    46  46 100 SE7       30.09S FOG
LAFAYETTE      CLOUDY    43  43 100 E8        30.07F FOG
TERRE HAUTE    LGT RAIN  50  49  96 SE10      30.05F

$$

INZ030>032-037>040-046>048-054>057-064-065-162300-
CENTRAL INDIANA

CITY           SKY/WX    TMP DP  RH WIND       PRES   REMARKS
CP ATTERBURY + LGT RAIN  46  46 100 CALM      30.13S
COLUMBUS       LGT RAIN  48  48 100 SE6       30.13S FOG
FRANKFORT +    CLOUDY    46  45  95 SE8       30.10S FOG
GREENWOOD *+   CLOUDY    48  48 100 SE7       30.12S
INDIANAPOLIS   LGT RAIN  47  45  93 SE8       30.11S VSB 1
-EAGLE CREEK   LGT RAIN  48  45  89 SE6       30.10S FOG
KOKOMO +       FOG       39  39 100 E8        30.11S VSB 1
MARION +       CLOUDY    43  41  93 SE7       30.12R FOG
MT COMFORT *+  CLOUDY    48  46  93 S5        30.12S
SHELBYVILLE    CLOUDY    50  47  89 S7        30.12R FOG
ZIONSVILLE +   CLOUDY    46  45  95 SE8       30.11S FOG

$$

INZ033-034-041-042-049-050-058-059-162300-
EAST CENTRAL INDIANA

CITY           SKY/WX    TMP DP  RH WIND       PRES   REMARKS
MUNCIE         CLOUDY    49  45  86 SE7       30.12R FOG

$$

INZ060-061-067>069-081>083-085>088-162300-
SOUTHWEST INDIANA

CITY           SKY/WX    TMP DP  RH WIND       PRES   REMARKS
EVANSVILLE     CLOUDY    55  52  89 SE6       30.07F FOG
HUNTINGBURG *+ CLOUDY    54  54 100 SE7       30.09S
WASHINGTON +   DRIZZLE   53  51  94 SE6       30.07F

$$

INZ062-063-066-070>080-084-089>092-162300-
SOUTH CENTRAL AND SOUTHEAST INDIANA

CITY           SKY/WX    TMP DP  RH WIND       PRES   REMARKS
BLOOMINGTON    LGT RAIN  50  47  89 SE6       30.10S FOG
MADISON *+     CLOUDY    50  48  93 NE6       30.15F
NORTH VERNON + CLOUDY   N/A N/A N/A S6        30.15R
SEYMOUR +      LGT RAIN  52  52 100 E7        30.12F

$$




USA.gov is the U.S. government's official web portal to all federal, state and local government web resources and services.